Regional Weather Roundup
Issued by NWS Newport/Morehead, NC

Current Version | Previous Version | Text Only | Print | Product List | Glossary On
Versions: 1 2 3 4 5 6 7 8 9 10 11 12 13 14 15 16 17 18 19 20 21 22 23 24 25 26 27 28 29 30 31 32 33 34 35 36 37 38 39 40 41 42 43 44 45 46 47 48 49 50
000
ASUS42 KMHX 232025
RWRMHX
WEATHER ROUNDUP FOR EASTERN NORTH CAROLINA
NATIONAL WEATHER SERVICE NEWPORT/MOREHEAD CITY NC
300 PM EST FRI FEB 23 2018

NOTE: "FAIR" INDICATES FEW OR NO CLOUDS BELOW 12,000 FEET
WITH NO SIGNIFICANT WEATHER AND/OR OBSTRUCTIONS TO VISIBILITY

NCZ015>017-031-032-045>047-102-103-232100-
NORTH COAST

CITY           SKY/WX    TMP DP  RH WIND       PRES   REMARKS
EDENTON        FAIR      66  56  71 CALM      30.40F
ELIZABETH CITY CLOUDY    60  56  86 CALM      30.40F
KITTY HAWK     CLOUDY   N/A N/A N/A CALM      30.40F
MANTEO         PTSUNNY   55  52  89 N3        30.41F

$$

NCZ045>047-081-094-103-104-232100-
CENTRAL COAST

CITY           SKY/WX    TMP DP  RH WIND       PRES   REMARKS
FRISCO         FAIR      64  58  80 N6        30.41F

$$

NCZ095-097-098-100-101-232100-
SOUTHERN COAST

CITY           SKY/WX    TMP DP  RH WIND       PRES   REMARKS
BEAUFORT       FAIR      69  60  73 E9        30.40S
CEDAR ISLAND   NOT AVBL
JACKSONVILLE   FAIR      75  62  64 S10       30.37F
PINEY ISLAND   NOT AVBL
WILMINGTON     PTSUNNY   68  62  81 SE9       30.39F


$$

NCZ011>013-027>030-043-044-078>080-089-090>093-098-232100-
COASTAL PLAIN

CITY           SKY/WX    TMP DP  RH WIND       PRES   REMARKS
AHOSKIE        FAIR      58  52  79 CALM      30.41F
CLINTON        FAIR      77  63  61 CALM      30.37F
ELIZABETHTOWN  NOT AVBL
GOLDSBORO      FAIR      76  60  56 NW5       30.36F
GREENVILLE     FAIR      73  57  56 N3        30.38F
HAVELOCK       PTSUNNY   75  63  66 N9        30.39F
KENANSVILLE    PTSUNNY   73  61  64 W5        30.37F
KINSTON        FAIR      77  59  53 S7        30.38F
NEW BERN       FAIR      73  61  65 N3        30.39F
RICHLANDS      CLOUDY    74  62  66 E3        30.38F
ROCKY MOUNT    FAIR      64  54  69 NW5       30.40F
WASHINGTON     FAIR      74  59  59 CALM      30.38F
WHITEVILLE     CLOUDY    79  59  50 SE6       30.35F

$$

AMZ130-135-150-152-154-156-158-170-250-252-270-ANZ085-086-088-633-658-670-232100-
MARINE OBSERVATIONS

STATION/POSITION TIME  TEMP    WIND        PRES    WAVE   SWELL
                       AIR SEA DIR/SP/G            HT/PER HT/PER
                 (UTC) (F)     (DEG/KT/KT) (MB)    (FT/S) (FT/S)
CHESAPEAKE LIGHT NOT AVBL
64 E VA BEACH    1950   50 51  330/  6/  6 1029.6    5/ 8   5/ 8
DUCK             2000      47   20/  5/  6 1029.3
2 E DUCK         2000      47                N/A     4/ 8   2/14
OREGON INLET     2000   49 51   20/  8/ 11 1029.7
13E OREGON INLT  1948      49                N/A     5/ 9   5/ 9
HATTERAS CG      2000   60 60  360/  3/  5 1029.6
DIAMOND BUOY     2010   67 73  350/  2/  4 1029.8
CAPE LOOKOUT     2000           50/  6/  6 1029.8
BEAUFORT LAB     2000   63 60  130/  9/ 10 1029.5
30 SE NEW RVR IN 1908   64 70  100/  8/ 12 1029.6
30 SE NEW RVR IN 2000      70                N/A     4/ 9   2/14
27 SE WRIGHTSVLE 1908   69 70  100/  6/ 12 1029.5
5 SE WRIGHTSVLE  2008   63 62  130/  6/ 10 1029.0
225 S CAPE HAT   1950   72 73  140/  8/ 10 1029.3    6/ 9   5/ 9
41 SE CHARLESTON 2010   72 68  230/  2/  4 1028.3

$$




USA.gov is the U.S. government's official web portal to all federal, state and local government web resources and services.